Miscellaneous Local Product
Issued by NWS North Platte, NE

Home | Current Version | Previous Version | Graphics & Text | Print | Product List | Glossary On
Versions: 1 2 3 4 5 6 7 8 9 10 11 12 13 14 15 16 17 18 19 20 21 22 23 24 25 26 27 28 29 30 31 32 33 34 35 36 37 38 39 40 41 42 43 44 45 46 47 48 49 50
000
AXUS43 KLBF 050310
MISLBF


WESTERN AND NORTH CENTRAL NEBRASKA HOURLY WEATHER ROUNDUP
NATIONAL WEATHER SERVICE NORTH PLATTE NE
900 PM CST SUN DEC 04 2016

NOTE: "FAIR" INDICATES FEW OR NO CLOUDS BELOW 12,000 FEET WITH NO
SIGNIFICANT WEATHER AND/OR OBSTRUCTIONS TO VISIBILITY.

NOTE: STATIONS NOT REPORTING VARIABLES SUCH AS SKY/WEATHER OR
PRESSURE ARE PROVIDED BY RAWS AND APRS NETWORKS AND ARE NOT UNDER
NATIONAL WEATHER SERVICE QUALITY CONTROL.

...OBSERVATIONS IN AND NEAR THE EASTERN PANHANDLE OF NEBRASKA...

CITY           SKY/WX    TMP DP  RH WIND       PRES   REMARKS
PINE RIDGE     MOCLDY    38  24  57 S9        29.63F WCI  31
CHADRON        PTCLDY    36  19  50 SW10      29.63F WCI  28
ALLIANCE       PTCLDY    33  19  56 S8        29.67F WCI  26
SIDNEY         CLOUDY    32  14  47 SW8       29.73F WCI  25
CRESCENT LAKE    N/A     36  10  33 S5          N/A  WCI  32
$$

...OBSERVATIONS IN NORTHERN NEBRASKA AND FAR SOUTHERN SOUTH DAKOTA...

CITY           SKY/WX    TMP DP  RH WIND       PRES   REMARKS
WINNER         MOCLDY    36  26  67 SE10      29.70F WCI  28
VALENTINE      PTCLDY    37  15  40 S10       29.69F WCI  30
THEDFORD       CLEAR     37  17  44 S12       29.73F WCI  30
AINSWORTH      CLEAR     30  18  61 S8        29.71F WCI  23
O`NEILL        CLEAR     32  22  67 S5        29.77F WCI  27
ORD            CLEAR     29  18  63 S10       29.79F WCI  20
BROKEN BOW     CLEAR     31  20  63 S9        29.78F WCI  23
VALENTINE NWR    N/A     28  14  54 S6          N/A  WCI  22
BUTTE            N/A     35  24  63 SE8         N/A  WCI  28
HALSEY           N/A     37  15  41 S8          N/A  WCI  31
CHAMBERS         N/A     29  16  58 CALM        N/A
EWING            N/A     31  24  75 CALM        N/A
$$

...OBSERVATIONS IN SOUTHWEST NEBRASKA AND FAR NORTHEAST COLORADO...

CITY           SKY/WX    TMP DP  RH WIND       PRES   REMARKS
HOLYOKE        FAIR      36  16  44 SW13      29.76S WCI  27
IMPERIAL       CLOUDY    36  13  38 SW12      29.77F WCI  28
OGALLALA       CLEAR     36  15  43 SW10      29.74S WCI  28
NORTH PLATTE   CLOUDY    38  15  39 S12       29.75F WCI  30
MCCOOK         CLEAR     36  15  42 S12       29.80F WCI  28
LEXINGTON      CLEAR     36  19  49 S10       29.81F WCI  29
STAPLETON        N/A     30  17  57 CALM        N/A
GOTHENBURG       N/A     42  15  33 S7          N/A
CALLAWAY         N/A     31  20  62 S9          N/A  WCI  23
$$

...OBSERVATIONS IN CENTRAL LINCOLN COUNTY AREA...

CITY           SKY/WX    TMP DP  RH WIND       PRES   REMARKS
N.P. AIRPORT   CLOUDY    38  15  39 S12       29.75F WCI  30
N.P. DOWNTOWN    N/A     39  17  42 S7G14       N/A  WCI  34
N.P. SOUTHEAST   N/A     39  17  41 S10G18      N/A  WCI  32
N.P. HILLCREST   N/A     38  18  44 S6G13       N/A  WCI  33
$$

...SOME OBSERVATIONS FROM AROUND THE REGION...

CITY           SKY/WX    TMP DP  RH WIND       PRES   REMARKS
LARAMIE        CLOUDY    33  15  47 S20G31    29.78F WCI  21
CHEYENNE       CLOUDY    40  15  36 S13       29.73S WCI  32
DENVER         CLOUDY    33  10  38 VRB7      29.76F WCI  27
AKRON          CLOUDY    39  13  34 SW13      29.75F WCI  31
SCOTTSBLUFF    CLOUDY    29  16  58 E7        29.68F WCI  22
RAPID CITY     CLOUDY    35  18  49 S5        29.58F WCI  31
BISMARCK       CLOUDY    16  14  92 E7        29.64F WCI   6
PIERRE         CLEAR     27  22  81 SE6       29.66F WCI  20
SIOUX FALLS    PTCLDY    32  29  88 SW6       29.78F WCI  26
OMAHA          CLEAR     33  28  81 S9        29.91S WCI  25
GRAND ISLAND   CLEAR     37  30  75 SW13      29.85F WCI  29
KANSAS CITY    CLEAR     30  28  92 S7        29.99S WCI  23
WICHITA        CLEAR     35  33  92 S7        29.99F WCI  29
OKLAHOMA CITY  CLOUDY    39  35  86 NW5       30.02S
DALLAS         MOCLDY    50  41  71 NE9       30.02F
AMARILLO       CLEAR     34  24  67 S12       30.00F WCI  25
DODGE CITY     CLEAR     33  24  69 SW7       29.96F WCI  27
HAYS           CLEAR     33  25  72 SW8       29.93F WCI  26
GOODLAND       CLOUDY    35  13  40 S17       29.82F WCI  25
$$




USA.gov is the U.S. government's official web portal to all federal, state and local government web resources and services.